Regional Weather Roundup
Issued by NWS Newport/Morehead, NC

Current Version | Previous Version | Graphics & Text | Print | Product List | Glossary Off
Versions: 1 2 3 4 5 6 7 8 9 10 11 12 13 14 15 16 17 18 19 20 21 22 23 24 25 26 27 28 29 30 31 32 33 34 35 36 37 38 39 40 41 42 43 44 45 46 47 48 49 50
000 ASUS42 KMHX 252010 RWRMHX WEATHER ROUNDUP FOR EASTERN NORTH CAROLINA NATIONAL WEATHER SERVICE NEWPORT/MOREHEAD CITY NC 300 PM EST TUE NOV 25 2014 NOTE: "FAIR" INDICATES FEW OR NO CLOUDS BELOW 12,000 FEET WITH NO SIGNIFICANT WEATHER AND/OR OBSTRUCTIONS TO VISIBILITY NCZ015>017-031-032-045>047-102-103-252100- NORTH COAST CITY SKY/WX TMP DP RH WIND PRES REMARKS EDENTON DRIZZLE 62 60 94 CALM 30.02S ELIZABETH CITY CLOUDY 64 59 83 W5 30.02S KITTY HAWK CLOUDY 61 60 96 CALM 30.03R MANTEO CLOUDY 62 60 94 NW3 30.04R $$ NCZ045>047-081-094-103-104-252100- CENTRAL COAST CITY SKY/WX TMP DP RH WIND PRES REMARKS FRISCO CLOUDY 62 61 96 NW3 30.04R SWANQUARTER N/A 63 N/A N/A NW2 29.97F $$ NCZ095-097-098-100-101-252100- SOUTHERN COAST CITY SKY/WX TMP DP RH WIND PRES REMARKS BEAUFORT LGT RAIN 65 63 93 SE6 30.05R CEDAR ISLAND N/A 63 N/A N/A E2 30.09R JACKSONVILLE CLOUDY 66 61 84 E7 30.01S PINEY ISLAND CLOUDY 68 62 81 S6 30.07R WILMINGTON CLOUDY 67 62 84 CALM 30.01S $$ NCZ011>013-027>030-043-044-078>080-089-090>093-098-252100- COASTAL PLAIN CITY SKY/WX TMP DP RH WIND PRES REMARKS AHOSKIE CLOUDY 55 54 94 CALM 30.02S CLINTON LGT RAIN 62 62 100 CALM 30.04R ELIZABETHTOWN LGT RAIN 64 63 98 CALM 30.02R GOLDSBORO LGT RAIN 63 63 100 CALM 30.00R GREENVILLE DRIZZLE 57 52 82 N3 30.04R HAVELOCK CLOUDY 66 61 84 VRB3 30.06R KENANSVILLE CLOUDY 63 61 94 CALM 30.00F KINSTON RAIN 63 61 94 CALM 30.00F NEW BERN CLOUDY 67 61 81 CALM 30.04R RICHLANDS CLOUDY 63 59 88 CALM 30.01F ROCKY MOUNT CLOUDY 56 49 77 N6 30.04R WASHINGTON CLOUDY 62 60 91 CALM 30.01S WHITEVILLE LGT RAIN 64 63 94 CALM 30.01R $$ AMZ130-135-150-152-154-156-158-170-250-252-270-ANZ085-086-088-633-658-670-252100- MARINE OBSERVATIONS STATION/POSITION TIME TEMP WIND PRES WAVE SWELL AIR SEA DIR/SP/G HT/PER HT/PER (UTC) (F) (DEG/KT/KT) (MB) (FT/S) (FT/S) CHESAPEAKE LIGHT 1900 56 350/ 18/ 19 1016.3 64 E VA BEACH 2000 63 64 270/ 8/ 10 1016.3 5/ 9 5/ 9 DUCK 2000 60 59 220/ 4/ 5 1016.6 2 E DUCK 2000 58 N/A 3/ 8 2/11 10 NE DUCK 2000 59 N/A 4/ 9 2/11 OREGON INLET 2000 62 58 260/ 2/ 4 1017.2 13E OREGON INLT 2000 62 N/A 4/ 8 2/11 HATTERAS CG 2000 62 63 330/ 3/ 4 1017.7 DIAMOND BUOY 2000 67 20/ 2/ 6 1017.5 4/ 8 5/ 8 17 S OCRACOKE NOT AVBL CAPE LOOKOUT 1900 65 300/ 6/ 7 1016.8 BEAUFORT LAB 2000 63 58 160/ 8/ 11 1017.1 30 SE NEW RIVER 1900 66 69 360/ 2/ 4 1017.8 5 SE WRIGHTSVLE 1900 60 59 260/ 2/ 4 1015.9 225 S CAPE HAT 1918 75 74 190/ 17/ 19 1017.8 7/ 7 3/10 41 SE CHARLESTON 2000 67 74 360/ 8/ 10 1015.1 4/ 9 5/ 9 $$

USA.gov is the U.S. government's official web portal to all federal, state and local government web resources and services.